Location: Strawberry
(45.6646°N, 111.9596°W)
Time: 18:07:38
(UTC+00:00)

SR - Pass Details

Date: 10 October 2022
Orbit: 577 x 874 km, 66.7° (Epoch: 05 December)

Event Time Altitude Azimuth Distance (km) Brightness Sun altitude
Exits shadow 09:32:33 15° 66° (ENE) 1,948 ? -41.0°
Drops below altitude 10° 09:33:55 10° 80° (E) 2,241 ? -40.8°
Sets 09:36:51 0° 98° (E) 3,098 ? -40.4°
